Temp
85 87 89 90 91 92 91 92 92 91 88 85 86 86 86 86 84 88 89 89 92 92 93 94 92 90 90 89 89 89 89 91 91
83 84 86 88 91 92 92 92 91 91 89 87 88 89 87 86 86 85 89 89 90 92 90 94 91 91 90 90 90 89 89 89 88
82 83 84 85 88 90 93 94 94 93 92 89 89 90 90 89 88 87 88 88 86 89 90 89 89 89 89 90 89 89 87 90 88
81 81 82 83 86 89 91 93 94 94 92 91 90 91 90 89 90 90 88 88 88 88 89 89 87 88 88 88 89 89 86 86 88
82 82 82 84 84 86 86 88 89 92 92 92 92 92 89 89 90 90 91 88 89 89 87 89 88 89 88 88 88 89 87 86 89
82 82 82 80 83 84 83 84 83 85 90 92 93 92 91 90 90 90 89 90 89 89 88 88 91 89 86 87 88 87 88 87 87
84 82 80 82 72 76 79 81 81 81 85 88 91 93 91 89 89 91 91 90 89 89 88 87 88 89 88 88 88 88 88 86 87
80 81 82 82 81 74 69 74 78 79 82 85 84 86 89 88 88 89 89 89 88 88 88 88 88 88 87 88 89 91 88 87 88
80 80 81 81 81 79 73 71 73 77 77 77 85 82 84 86 86 86 86 86 86 86 86 86 87 87 87 87 91 77 71 78 86
80 81 80 80 79 78 78 78 77 72 78 80 80 82 83 82 83 83 83 84 84 84 84 86 84 85 86 86 87 66 67 69 85
81 80 79 79 82 79 78 79 79 77 73 77 78 78 79 80 80 80 81 80 81 82 84 84 84 85 85 85 81 62 64 68 82
83 82 80 81 82 79 77 77 77 77 78 78 76 77 78 78 80 80 80 80 81 82 80 80 81 84 84 82 74 60 62 69 79
82 83 82 81 80 80 79 77 79 77 78 78 76 76 73 76 79 79 78 77 80 80 79 77 77 75 77 69 73 59 60 68 75
83 82 81 80 80 80 79 78 78 76 76 76 77 74 71 69 71 72 72 77 75 77 74 71 70 67 67 69 68 66 57 61 75
81 80 80 80 81 80 80 75 73 70 73 75 77 77 74 67 70 71 72 74 75 73 68 66 64 63 62 63 65 59 57 58 62
81 80 80 83 83 79 79 74 71 69 68 72 71 72 70 68 65 66 66 65 63 62 64 62 61 61 60 58 59 58 55 56 57
81 81 79 81 79 79 77 75 74 71 68 68 69 70 68 67 66 64 64 62 62 61 60 60 59 59 57 57 58 58 59 59 58
81 80 80 79 78 79 77 77 72 73 70 66 66 65 64 64 63 60 58 53 53 59 57 59 60 59 59 58 57 57 55 57 60
79 79 78 77 77 77 77 77 75 73 71 66 63 61 61 63 61 59 58 56 54 48 48 47 46 49 61 63 51 46 46 46 47
73 78 78 77 77 77 76 76 75 72 71 70 65 62 60 61 60 60 60 59 57 55 50 48 46 46 45 48 46 44 44 44 47
MSLP
1007.89 1007.92 1008.08 1008.32 1008.61 1009.04 1009.79 1010.25 1010.96 1011.71 1012.60 1013.38 1014.01 1014.57 1015.14 1015.62 1016.20 1016.33 1016.24 1016.17 1015.86 1015.95 1015.75 1015.84 1016.01 1016.76 1016.90 1017.20 1017.40 1017.51 1017.71 1017.75 1017.82
1007.99 1008.19 1008.20 1008.26 1008.41 1008.87 1009.27 1009.85 1010.48 1011.10 1011.75 1012.62 1013.23 1013.76 1014.54 1015.07 1015.55 1015.91 1015.53 1015.80 1016.04 1016.05 1016.16 1015.83 1016.26 1016.42 1016.72 1016.87 1017.06 1017.16 1017.25 1017.74 1017.92
1008.30 1008.64 1008.78 1008.78 1008.71 1008.75 1008.96 1009.40 1009.98 1010.76 1011.26 1011.80 1012.44 1013.09 1013.75 1014.27 1014.72 1015.21 1015.44 1015.71 1016.06 1015.93 1015.96 1016.21 1016.15 1016.57 1016.71 1016.81 1016.90 1016.92 1017.46 1017.39 1017.80
1008.46 1008.84 1008.95 1009.04 1008.87 1008.84 1008.99 1009.30 1009.64 1010.15 1010.88 1011.30 1011.83 1012.27 1012.84 1013.45 1013.90 1014.43 1014.98 1015.14 1015.51 1015.78 1015.93 1016.02 1016.18 1016.33 1016.49 1016.54 1016.73 1016.93 1017.17 1017.50 1017.48
1008.59 1008.96 1009.01 1009.04 1009.25 1009.26 1009.60 1009.74 1010.13 1010.02 1010.36 1010.78 1011.11 1011.55 1012.24 1012.69 1013.25 1013.74 1014.03 1014.63 1014.88 1015.21 1015.55 1015.76 1015.89 1016.05 1016.34 1016.36 1016.78 1016.85 1016.88 1017.09 1016.95
1008.40 1008.90 1009.16 1009.56 1009.54 1009.74 1010.17 1010.60 1010.83 1010.84 1010.48 1010.50 1010.60 1011.06 1011.53 1012.07 1012.36 1012.88 1013.27 1013.65 1014.29 1014.65 1015.01 1015.29 1015.36 1015.72 1016.10 1016.39 1016.59 1016.83 1016.85 1016.86 1016.92
1008.16 1008.64 1009.11 1009.55 1010.53 1010.69 1010.97 1010.97 1011.13 1011.33 1011.04 1010.82 1010.52 1010.54 1010.99 1011.47 1011.89 1012.11 1012.52 1013.03 1013.59 1014.00 1014.46 1014.77 1014.91 1015.23 1015.59 1015.94 1016.26 1016.51 1016.67 1016.70 1016.77
1008.17 1008.48 1008.97 1009.45 1009.98 1010.89 1011.32 1011.31 1011.32 1011.55 1011.36 1010.92 1011.11 1011.04 1010.84 1011.13 1011.61 1011.94 1012.21 1012.58 1013.01 1013.53 1013.85 1014.15 1014.37 1014.61 1015.06 1015.42 1015.76 1015.91 1016.29 1016.48 1016.31
1007.97 1008.40 1008.92 1009.46 1009.91 1010.42 1011.03 1011.21 1011.40 1011.32 1011.59 1011.26 1010.89 1011.08 1010.89 1011.01 1011.26 1011.66 1011.96 1012.33 1012.75 1013.10 1013.43 1013.68 1013.91 1014.13 1014.35 1014.68 1014.95 1015.13 1015.92 1016.25 1016.17
1007.99 1008.45 1009.01 1009.49 1009.94 1010.42 1010.88 1011.07 1011.20 1011.63 1011.68 1011.53 1011.22 1010.88 1010.79 1011.09 1011.35 1011.61 1011.77 1012.04 1012.37 1012.65 1012.94 1013.21 1013.50 1013.75 1014.04 1014.31 1014.68 1015.24 1015.80 1016.19 1016.05
1007.97 1008.57 1009.18 1009.64 1010.00 1010.47 1010.87 1011.16 1011.23 1011.47 1011.58 1011.33 1011.32 1011.12 1011.11 1011.30 1011.52 1011.69 1011.70 1011.86 1011.89 1012.08 1012.36 1012.60 1012.97 1013.23 1013.51 1013.88 1014.54 1015.37 1015.78 1016.05 1015.85
1007.98 1008.57 1009.26 1009.78 1010.16 1010.60 1010.95 1011.11 1011.31 1011.52 1011.33 1011.52 1011.58 1011.27 1011.38 1011.51 1011.53 1011.61 1011.52 1011.50 1011.55 1011.70 1012.01 1012.18 1012.48 1012.63 1012.93 1013.55 1014.97 1015.48 1015.56 1015.63 1015.69
1008.27 1008.76 1009.29 1009.78 1010.21 1010.65 1010.85 1011.12 1011.36 1011.29 1011.34 1011.26 1011.37 1011.52 1011.74 1011.65 1011.52 1011.57 1011.51 1011.49 1011.32 1011.54 1011.94 1012.49 1012.96 1013.31 1013.51 1014.06 1014.88 1015.47 1015.23 1015.41 1015.79
1008.36 1008.92 1009.50 1009.96 1010.34 1010.49 1010.83 1011.18 1011.31 1011.18 1011.24 1011.26 1011.24 1011.57 1011.80 1011.59 1011.76 1011.94 1011.85 1011.57 1011.79 1011.72 1012.40 1013.04 1013.68 1014.21 1014.63 1014.85 1015.12 1015.42 1015.43 1015.19 1015.49
1008.37 1008.96 1009.55 1009.92 1010.13 1010.47 1010.92 1011.43 1011.63 1011.55 1011.34 1011.38 1011.30 1011.35 1011.61 1011.82 1011.78 1011.80 1011.74 1011.36 1011.58 1011.82 1012.57 1013.30 1013.83 1014.32 1014.89 1015.34 1015.41 1015.53 1016.05 1015.78 1015.65
1008.34 1008.88 1009.36 1009.65 1009.96 1010.37 1010.88 1011.49 1011.67 1011.62 1011.86 1011.93 1011.80 1011.91 1012.28 1012.42 1012.44 1012.43 1012.59 1012.49 1012.32 1012.59 1013.10 1013.45 1013.97 1014.31 1014.93 1015.52 1015.75 1015.73 1016.23 1016.20 1016.93
1008.23 1008.85 1009.32 1009.61 1010.00 1010.28 1010.64 1011.37 1011.60 1011.85 1012.17 1012.19 1012.05 1012.26 1012.84 1013.02 1012.88 1013.17 1013.36 1013.23 1013.34 1013.63 1013.86 1014.08 1014.20 1014.70 1015.23 1015.70 1015.96 1016.26 1016.61 1016.83 1017.24
1008.16 1008.73 1009.28 1009.60 1009.92 1010.21 1010.57 1011.07 1011.67 1011.91 1012.26 1012.39 1012.44 1012.77 1013.06 1013.37 1013.56 1013.68 1014.24 1015.00 1014.62 1014.61 1014.65 1014.64 1014.91 1015.35 1015.71 1016.01 1016.53 1017.03 1016.99 1016.88 1017.18
1008.22 1008.69 1009.22 1009.65 1009.98 1010.21 1010.55 1010.95 1011.40 1011.85 1012.22 1012.48 1012.78 1012.93 1013.23 1013.55 1013.86 1014.16 1014.61 1014.98 1015.30 1015.61 1015.54 1015.24 1015.42 1015.95 1015.87 1016.71 1017.07 1017.07 1017.16 1017.56 1017.94
1008.33 1008.74 1009.10 1009.42 1009.74 1010.11 1010.56 1010.86 1011.20 1011.81 1012.20 1012.36 1012.78 1013.00 1013.31 1013.73 1013.96 1014.05 1014.53 1015.06 1015.28 1015.87 1016.73 1016.43 1016.50 1016.67 1016.79 1016.79 1017.48 1017.67 1017.86 1018.25 1018.47
Wind_Speed
3 6 11 13 12 15 13 15 16 16 16 15 15 14 13 12 11 8 7 9 7 6 6 5 6 8 6 6 6 5 4 5 5
1 2 4 5 12 12 14 15 15 16 16 15 16 16 13 13 11 11 9 7 6 8 6 5 6 8 7 7 7 7 5 4 5
1 0 1 4 7 11 13 14 14 14 15 15 15 14 13 12 13 12 12 8 10 8 5 6 5 8 8 7 7 7 7 4 5
4 3 4 5 5 8 9 11 13 13 13 14 14 14 14 13 13 14 13 11 10 10 9 8 7 7 7 6 6 7 7 6 6
2 3 5 4 3 3 6 6 8 10 11 13 13 13 13 14 13 13 13 12 12 10 10 9 8 7 7 7 5 5 6 6 6
3 1 2 5 6 2 4 2 5 8 10 12 12 13 14 14 14 14 14 14 13 11 10 10 9 8 8 7 6 6 7 6 7
2 2 1 4 4 4 2 2 1 6 9 10 11 11 12 13 14 15 14 13 13 13 11 11 10 10 9 8 7 8 9 6 8
3 2 1 0 2 2 1 0 1 2 6 7 8 12 11 11 11 12 12 12 12 12 12 12 12 11 10 10 9 7 7 7 9
5 3 1 2 2 1 0 2 3 3 1 3 5 9 10 10 10 11 12 12 12 12 13 13 12 12 12 12 9 9 10 7 8
5 2 1 3 3 4 2 3 1 4 4 3 2 6 8 7 8 10 11 12 13 13 13 13 13 12 12 12 12 8 5 5 7
5 3 1 0 1 1 1 1 1 2 5 6 5 3 3 6 8 10 10 9 10 12 13 13 13 13 13 11 4 10 9 6 7
4 3 4 2 1 0 3 4 2 4 4 3 5 6 6 5 6 6 9 11 12 12 9 9 11 12 12 11 8 10 10 7 4
5 4 5 4 3 1 3 4 5 5 6 5 5 5 4 7 7 9 8 6 8 8 5 6 4 3 3 7 9 8 10 8 6
6 6 5 4 1 2 3 4 5 6 6 8 4 3 4 2 5 10 7 10 8 8 7 7 7 6 4 6 6 7 7 10 8
8 7 6 4 2 1 2 4 5 5 6 2 2 1 3 4 4 4 7 8 9 7 8 8 8 8 6 3 5 6 4 7 10
7 6 5 3 1 1 2 3 3 3 3 3 2 3 4 4 6 6 5 4 5 4 5 6 6 6 7 5 4 6 11 13 11
8 7 6 5 3 1 3 2 3 1 2 3 3 5 5 3 6 6 6 5 5 5 4 3 5 6 5 4 4 5 6 7 10
7 7 7 6 4 2 1 1 2 2 1 2 2 4 5 5 4 6 7 7 5 4 4 3 4 4 4 5 5 3 4 8 8
8 8 8 7 6 4 1 1 1 1 2 3 4 4 3 4 5 5 4 4 6 17 11 14 12 8 5 5 8 9 11 12 12
7 8 9 9 8 6 3 2 2 3 1 3 5 4 4 3 5 5 5 4 5 6 8 16 14 11 9 11 10 10 12 12 10
Wind_Direction
288 232 221 232 214 213 208 203 197 196 187 195 193 199 202 208 210 229 228 219 250 223 226 207 155 192 201 204 214 216 208 238 260
298 354 330 246 239 228 206 208 205 202 196 198 198 199 198 204 206 219 239 247 219 225 237 232 210 209 206 215 221 224 228 222 249
98 80 9 343 256 224 222 210 209 208 205 202 204 207 202 206 209 212 221 220 231 252 254 236 230 223 208 217 224 225 217 243 233
72 14 330 328 297 220 216 218 213 206 209 209 206 205 209 211 208 212 215 218 220 227 229 232 233 232 243 225 237 228 226 220 266
109 8 12 357 57 187 197 220 236 232 217 212 213 213 209 215 215 218 216 220 221 219 221 225 234 238 231 236 238 235 237 243 288
204 297 33 37 48 101 126 171 233 243 247 231 224 213 216 216 215 215 221 218 221 220 217 220 229 222 231 239 245 243 252 251 255
202 141 68 84 95 38 47 7 254 267 261 251 242 220 218 221 224 223 221 218 218 218 217 223 221 227 228 234 240 253 253 257 252
194 180 204 358 332 99 314 274 146 266 278 243 229 242 226 224 230 232 232 224 216 217 214 215 223 220 222 226 231 234 247 254 262
209 209 265 307 315 18 43 17 35 56 88 321 225 215 230 229 224 227 226 224 221 214 216 217 215 222 224 223 231 180 188 234 257
197 207 346 324 331 313 233 229 105 318 319 335 299 237 215 219 229 230 224 222 220 218 217 218 217 220 222 225 231 117 132 199 241
160 161 148 113 305 308 273 281 292 335 314 302 283 306 225 223 223 230 226 225 220 218 216 214 214 215 217 222 157 126 134 167 237
129 128 122 98 34 237 244 264 226 266 279 282 267 255 249 247 231 238 228 223 219 220 216 216 214 213 207 206 160 162 160 183 150
150 139 122 126 116 173 252 251 267 260 269 270 264 256 274 280 257 257 239 240 199 187 186 158 147 143 160 143 165 179 161 171 161
145 140 141 133 141 325 350 303 300 271 256 260 304 187 275 302 239 239 244 236 241 234 190 164 152 134 112 144 166 168 189 161 161
153 151 154 179 174 44 23 335 296 299 265 312 281 32 15 0 337 229 237 237 236 186 155 156 153 146 129 120 119 72 155 132 122
163 168 165 183 217 135 63 322 316 304 325 356 265 102 65 69 58 50 56 66 65 88 150 156 155 152 143 136 106 86 79 90 100
174 181 189 190 200 282 341 336 296 312 334 283 236 148 122 100 98 74 54 76 86 80 70 105 119 119 116 103 98 102 109 107 94
189 186 192 196 207 221 358 11 310 308 59 334 112 129 134 125 96 91 85 52 35 57 46 52 102 103 117 128 125 116 118 128 119
198 191 191 196 203 204 222 245 160 345 88 117 130 123 120 118 121 112 105 104 84 48 41 57 54 60 113 84 87 119 107 101 104
188 196 199 202 198 194 188 216 186 107 137 138 157 158 139 131 132 126 125 130 101 105 63 65 53 59 68 75 113 102 108 112 112